Location: Vlissingen
(51.4500°N, 3.5830°E)
Time: 12:35:45
(UTC+01:00)

N. Korean satellite - Pass Details

Date: 07 December 2021
Orbit: 447 x 490 km, 97.3° (Epoch: 27 January)

Event Time Altitude Azimuth Distance (km) Brightness Sun altitude
Rises 05:55:43 0° 16° (NNE) 2,469 10.3 -23.8°
Reaches altitude 10° 05:57:47 10° 21° (NNE) 1,589 9.3 -23.5°
Maximum altitude 06:01:08 55° 100° (E) 544 7.0 -23.0°
Drops below altitude 10° 06:04:27 10° 180° (S) 1,573 9.2 -22.5°
Sets 06:06:30 0° 185° (S) 2,442 10.2 -22.2°
